Погода в Мандрове

Россия / Белгородская область     50°17′46″N   38°15′02″E
темп.,
°C
ветер,
м/с
пор.,
м/с
влажн.,
%
обл.,
%
осадки,
мм/ч
давл.,
гПа
погр.,
м
15 апреля, чт
чт1500:00+11ю3379100 0.0 101463
03:00+9юз369412 0.0 1014167
06:00+8ююз248897 0.0 1015100
09:00+12ююз46661 0.0 1015655
12:00+15ю574665 0.0 10141561
15:00+16ю564998 0.0 10141806
18:00+14ююв366071 0.1 10131007
21:00+11ю378098 2.4 1015232
16 апреля, пт
пт1600:00+8ююв22885 0.0 101523
03:00+7ююв37890 0.0 1015162
06:00+6ююв24924 0.0 101789
09:00+10ю57682 0.0 1017973
12:00+13ю6853100 0.0 10171821
15:00+13юз455156 0.0 10171197
18:00+13ююз355535 0.0 10171177
21:00+8ю226927 0.0 101824
17 апреля, сб
сб1700:00+9юз377569 0.0 1018290
03:00+7сз1184100 0.0 101823
06:00+7ю1183100 0.1 101913
09:00+9юз456914 0.1 1019628
12:00+12юз5551100 0.1 10191770
15:00+12з4546100 0.1 10191464
18:00+12зсз465753 0.0 1019439
21:00+8зюз347318 0.1 102067
18 апреля, вс
вс1800:00+6з227968 0.0 102130
03:00+6з247962 0.0 1020108
06:00+5з128799 0.0 102040
09:00+8зюз2372100 0.0 1020577
12:00+9юз446998 0.4 1020966
15:00+11сз336395 0.7 1019984
18:00+11сз116599 0.3 1019401
21:00+8ссв117573 0.4 101910
19 апреля, пн
пн1900:00+7всв117875 0.0 101910
03:00+7с117741 0.0 101910
06:00+6ссв22845 0.0 101911
09:00+10ссв33645 0.0 1019634
12:00+14ссв334529 0.0 10181766
15:00+14св4443100 0.0 10172090
18:00+12св686560 0.0 1018841
21:00+9всв611767 0.0 1017567